Date String (YYYY-MM-DD hh:mm:ss) UTC,Instrument flags,Ambient pressure (hPa),Sample flow (lpm),Bypass flow (lpm),Sample temperature (°C),Ambient temperature (°C),ASC tube jacket temperature (°C),LED temperature (°C),Box temperature (°C),Sample RH (%),Span deviation,Mass concentration (μg/m³),Mass concentration (μg/m³),Mass concentration (μg/m³)
DateTimeUTC,F1_M11,P_M11,Q1_M11,Q2_M11,T1_M11,T2_M11,T3_M11,T4_M11,T5_M11,U1_M11,ZSPAN_M11,X0_M11,X2_M11,X1_M11
2022-01-08 16:00:00,,0817.0,4.99,0.00,22.5,21.9,00.0,31.6,24.2,12.4,0001.6,0011.75,0007.31,0006.95
2022-01-08 16:01:00,,0817.2,5.01,0.00,22.5,21.9,00.0,31.6,24.3,12.3,0001.5,0011.55,0007.32,0006.96
2022-01-08 16:02:00,,0817.2,5.00,0.00,22.5,21.9,00.0,31.6,24.3,12.1,0001.8,0011.13,0007.33,0006.96
2022-01-08 16:03:00,,0816.8,5.01,0.00,22.5,21.9,00.0,31.6,24.3,11.9,0001.5,0011.16,0007.34,0006.96
2022-01-08 16:04:00,,0816.5,4.99,0.00,22.5,21.8,00.0,31.6,24.3,12.0,0000.9,0010.75,0007.29,0006.90
2022-01-08 16:05:00,,0816.4,5.01,0.00,22.5,21.7,00.0,31.6,24.2,12.2,0001.1,0010.64,0007.18,0006.80
2022-01-08 16:06:00,,0817.0,4.99,0.00,22.4,21.7,00.0,31.6,24.1,12.6,0001.6,0010.45,0007.04,0006.67
2022-01-08 16:07:00,,0817.1,5.01,0.00,22.4,21.6,00.0,31.6,24.1,12.7,0002.1,0010.37,0006.97,0006.61
2022-01-08 16:08:00,,0817.3,5.01,0.00,22.4,21.6,00.0,31.5,24.0,12.7,0002.3,0010.17,0006.87,0006.55
2022-01-08 16:09:00,,0817.3,4.99,0.00,22.3,21.6,00.0,31.5,24.0,12.5,0002.4,0009.97,0006.77,0006.48
2022-01-08 16:10:00,,0817.3,5.01,0.00,22.3,21.6,00.0,31.5,24.0,12.6,0002.4,0009.64,0006.70,0006.41
2022-01-08 16:11:00,,0817.1,4.99,0.00,22.3,21.6,00.0,31.5,24.0,12.8,0001.9,0009.52,0006.64,0006.35
2022-01-08 16:12:00,,0817.1,5.00,0.00,22.3,21.6,00.0,31.5,24.0,12.8,0001.8,0009.42,0006.59,0006.30
2022-01-08 16:13:00,,0817.1,5.00,0.00,22.3,21.6,00.0,31.5,24.0,13.4,0001.7,0009.23,0006.45,0006.17
2022-01-08 16:14:00,,0817.1,4.99,0.00,22.3,21.6,00.0,31.5,24.1,13.7,0001.8,0008.85,0006.20,0005.96
2022-01-08 16:15:00,,0817.1,5.00,0.00,22.3,21.6,00.0,31.5,24.1,13.5,0002.1,0008.68,0006.07,0005.83
2022-01-08 16:16:00,,0817.1,5.01,0.00,22.3,21.7,00.0,31.5,24.0,13.4,0001.3,0008.68,0006.04,0005.79
2022-01-08 16:17:00,,0817.2,4.99,0.00,22.3,21.7,00.0,31.4,24.0,13.2,0001.0,0008.69,0006.04,0005.79
2022-01-08 16:18:00,,0817.2,5.00,0.00,22.3,21.6,00.0,31.4,24.0,13.3,0000.6,0008.64,0006.00,0005.76
2022-01-08 16:19:00,,0817.3,4.99,0.00,22.3,21.6,00.0,31.4,24.0,13.3,0000.1,0008.63,0005.97,0005.72
2022-01-08 16:20:00,,0817.4,5.01,0.00,22.3,21.6,00.0,31.4,24.0,13.2,-000.2,0008.56,0005.94,0005.70
2022-01-08 16:21:00,,0817.5,4.99,0.00,22.2,21.6,00.0,31.4,23.9,13.3,0000.5,0008.54,0005.92,0005.68
2022-01-08 16:22:00,,0817.5,5.00,0.00,22.2,21.6,00.0,31.4,23.9,13.6,0001.3,0008.66,0005.88,0005.65
2022-01-08 16:23:00,,0817.3,5.00,0.00,22.2,21.6,00.0,31.4,23.9,13.2,0001.5,0009.40,0005.81,0005.59
2022-01-08 16:24:00,,0817.2,4.99,0.00,22.2,21.6,00.0,31.4,23.9,13.2,0001.5,0009.50,0005.87,0005.62
2022-01-08 16:25:00,,0817.3,5.01,0.00,22.2,21.6,00.0,31.4,23.9,13.3,0001.9,0009.64,0005.96,0005.70
2022-01-08 16:26:00,,0817.3,5.00,0.00,22.2,21.6,00.0,31.4,24.0,13.4,0002.1,0009.70,0006.01,0005.77
2022-01-08 16:27:00,,0817.5,4.98,0.00,22.2,21.6,00.0,31.3,24.0,13.4,0002.9,0009.66,0005.99,0005.77
2022-01-08 16:28:00,,0817.5,5.02,0.00,22.2,21.6,00.0,31.3,24.0,13.5,0002.9,0009.55,0005.93,0005.71
2022-01-08 16:29:00,,0817.5,5.00,0.00,22.3,21.7,00.0,31.3,24.1,13.5,0002.7,0009.43,0005.85,0005.65
2022-01-08 16:30:00,,0817.5,4.99,0.00,22.3,21.7,00.0,31.3,24.1,13.5,0002.9,0009.81,0005.78,0005.58
2022-01-08 16:31:00,,0817.4,5.00,0.00,22.3,21.7,00.0,31.3,24.1,13.5,0003.0,0009.70,0005.70,0005.51
2022-01-08 16:32:00,,0817.3,5.00,0.00,22.3,21.8,00.0,31.4,24.1,13.7,0001.9,0009.65,0005.62,0005.42
2022-01-08 16:33:00,,0817.4,5.00,0.00,22.3,21.8,00.0,31.4,24.1,13.7,0001.4,0009.50,0005.53,0005.33
2022-01-08 16:34:00,,0817.3,5.00,0.00,22.3,21.8,00.0,31.4,24.1,13.8,0001.3,0008.41,0005.42,0005.24
2022-01-08 16:35:00,,0817.3,5.00,0.00,22.4,21.8,00.0,31.4,24.2,13.9,0000.8,0008.20,0005.30,0005.14
2022-01-08 16:36:00,,0817.3,4.99,0.00,22.4,21.8,00.0,31.4,24.2,13.9,0000.7,0008.09,0005.23,0005.07
2022-01-08 16:37:00,,0817.3,5.01,0.00,22.4,21.8,00.0,31.4,24.2,14.0,0000.4,0008.07,0005.17,0005.00
2022-01-08 16:38:00,,0817.2,4.99,0.00,22.4,21.8,00.0,31.4,24.2,14.0,0000.1,0008.07,0005.11,0004.94
2022-01-08 16:39:00,,0817.2,5.00,0.00,22.4,21.9,00.0,31.4,24.3,13.7,0000.0,0007.98,0005.06,0004.90
2022-01-08 16:40:00,,0817.2,4.99,0.00,22.4,21.9,00.0,31.4,24.3,13.8,0000.0,0008.02,0005.04,0004.87
2022-01-08 16:41:00,,0817.2,5.01,0.00,22.5,21.9,00.0,31.4,24.3,13.4,0000.0,0007.68,0005.05,0004.87
2022-01-08 16:42:00,,0817.2,5.00,0.00,22.4,21.9,00.0,31.4,24.3,13.4,0000.0,0007.67,0005.09,0004.89
2022-01-08 16:43:00,,0817.3,4.99,0.00,22.5,21.9,00.0,31.4,24.3,13.3,0000.0,0007.66,0005.10,0004.91
2022-01-08 16:44:00,,0817.3,5.01,0.00,22.5,21.9,00.0,31.4,24.3,13.2,-000.0,0007.86,0005.20,0005.00
2022-01-08 16:45:00,,0817.3,4.99,0.00,22.5,22.0,00.0,31.4,24.2,13.2,0000.1,0008.25,0005.32,0005.09
2022-01-08 16:46:00,,0817.4,5.01,0.00,22.5,22.0,00.0,31.5,24.2,13.2,0000.3,0008.44,0005.40,0005.18
2022-01-08 16:47:00,,0817.4,5.00,0.00,22.5,22.0,00.0,31.5,24.3,13.5,0000.8,0008.51,0005.46,0005.23
2022-01-08 16:48:00,,0817.4,4.99,0.00,22.5,22.0,00.0,31.5,24.3,13.7,0001.1,0008.56,0005.46,0005.23
2022-01-08 16:49:00,,0817.5,5.01,0.00,22.5,22.0,00.0,31.5,24.3,13.6,0001.1,0008.86,0005.51,0005.28
2022-01-08 16:50:00,,0817.4,5.00,0.00,22.5,22.0,00.0,31.5,24.3,13.8,0000.7,0008.91,0005.53,0005.29
2022-01-08 16:51:00,,0817.5,5.00,0.00,22.5,22.0,00.0,31.5,24.3,13.8,0000.6,0009.33,0005.51,0005.26
2022-01-08 16:52:00,,0817.5,4.98,0.00,22.6,22.0,00.0,31.5,24.4,13.8,0001.1,0009.33,0005.47,0005.24
2022-01-08 16:53:00,,0817.5,5.01,0.00,22.6,22.1,00.0,31.5,24.4,13.9,0001.6,0009.29,0005.41,0005.19
2022-01-08 16:54:00,,0817.5,4.99,0.00,22.6,22.1,00.0,31.5,24.4,14.0,0002.0,0009.20,0005.33,0005.12
2022-01-08 16:55:00,,0817.5,5.01,0.00,22.6,22.1,00.0,31.5,24.4,13.9,0001.8,0008.99,0005.22,0005.02
2022-01-08 16:56:00,,0817.5,5.00,0.00,22.6,22.1,00.0,31.6,24.5,13.4,0001.9,0008.81,0005.18,0004.99
2022-01-08 16:57:00,,0817.4,5.01,0.00,22.6,22.1,00.0,31.6,24.5,13.2,0001.6,0009.40,0005.23,0005.04
2022-01-08 16:58:00,,0817.4,4.99,0.00,22.6,22.1,00.0,31.6,24.5,13.2,0001.7,0009.44,0005.31,0005.14
2022-01-08 16:59:00,,0817.4,5.00,0.00,22.7,22.1,00.0,31.6,24.5,13.3,0001.9,0009.45,0005.43,0005.28
